This is the latest recevied weather packets stored in our database for station/object DH2PG-6. If no packets are shown the sender has not sent any weather packets the latest 10 day(s).
| Time | Temp. | Humidity | Pressure | Rain* | Wind** | Luminosity | Snow |
|---|---|---|---|---|---|---|---|
| 1788272498 | 21.67° C | 51% | 1018 hPa | 0 mm | - | - | - |
| 1788272197 | 21.67° C | 53% | 1017.8 hPa | 0 mm | - | - | - |
| 1788271897 | 21.67° C | 55% | 1017.8 hPa | 0 mm | - | - | - |
| 1788271597 | 21.11° C | 55% | 1017.9 hPa | 0 mm | - | - | - |
| 1788271296 | 20.56° C | 56% | 1017.9 hPa | 0 mm | - | - | - |
| 1788270696 | 20.56° C | 54% | 1018 hPa | 0 mm | - | - | - |
| 1788270095 | 20.56° C | 54% | 1018.1 hPa | 0 mm | - | - | - |
| 1788269795 | 21.11° C | 54% | 1018.1 hPa | 0 mm | - | - | - |
| 1788269194 | 20.56° C | 57% | 1018.2 hPa | 0 mm | - | - | - |
| 1788268894 | 20° C | 58% | 1018.1 hPa | 0 mm | - | - | - |
| 1788268594 | 20° C | 59% | 1018.2 hPa | 0 mm | - | - | - |
| 1788268294 | 19.44° C | 60% | 1018.3 hPa | 0 mm | - | - | - |
| 1788267993 | 19.44° C | 60% | 1018.2 hPa | 0 mm | - | - | - |
| 1788267693 | 18.89° C | 59% | 1018.4 hPa | 0 mm | - | - | - |
| 1788267393 | 18.89° C | 60% | 1018.3 hPa | 0 mm | - | - | - |
| 1788267092 | 18.89° C | 59% | 1018.4 hPa | 0 mm | - | - | - |
| 1788266792 | 18.89° C | 59% | 1018.3 hPa | 0 mm | - | - | - |
| 1788266492 | 19.44° C | 57% | 1018.4 hPa | 0 mm | - | - | - |
| 1788266192 | 19.44° C | 56% | 1018.4 hPa | 0 mm | - | - | - |
| 1788265891 | 19.44° C | 57% | 1018.3 hPa | 0 mm | - | - | - |
| 1788265614 | 19.44° C | 56% | 1018.3 hPa | 0 mm | - | - | - |
| 1788264990 | 19.44° C | 59% | 1018.4 hPa | 0 mm | - | - | - |
| 1788264690 | 18.89° C | 59% | 1018.4 hPa | 0 mm | - | - | - |
| 1788264390 | 18.89° C | 59% | 1018.5 hPa | 0 mm | - | - | - |
| 1788263789 | 18.89° C | 59% | 1018.6 hPa | 0 mm | - | - | - |
* Rain latest hour (hover to see other rain measurements)
** Current wind speed in m/s (hover to see current wind gust speed)